Location: Gull Harbor
(47.1000°N, 122.9000°W)
Time: 16:13:40
(UTC-07:00)

N. Korean satellite - Pass Details

Date: 20 January 2018
Orbit: 458 x 513 km, 97.2° (Epoch: 26 May)

Event Time Altitude Azimuth Distance (km) Brightness Sun altitude
Rises 19:08:34 0° 209° (SSW) 2,559 10.7 -22.1°
Reaches altitude 10° 19:11:28 10° 236° (SW) 1,670 10.1 -22.6°
Maximum altitude 19:13:26 14° 269° (W) 1,428 9.9 -22.9°
Drops below altitude 10° 19:15:24 10° 303° (WNW) 1,661 10.0 -23.3°
Sets 19:18:16 0° 329° (NNW) 2,533 10.6 -23.8°
